Regional Weather Roundup
Issued by NWS

Home | Current Version | Previous Version | Text Only | Print | Product List | Glossary Off
Versions: 1 2 3 4 5 6 7 8 9 10 11 12 13 14 15 16 17 18 19 20 21 22 23 24 25 26 27 28 29 30 31 32 33 34 35 36 37 38 39 40 41 42 43 44 45 46 47 48 49 50

000
ASUS43 KTOP 292108
RWRKS

WEATHER ROUNDUP FOR KANSAS
NATIONAL WEATHER SERVICE GOODLAND KS
400 PM CDT WED OCT 29 2014

NOTE:  "FAIR" INDICATES FEW OR NO CLOUDS BELOW 12,000 FEET WITH NO
SIGNIFICANT WEATHER AND/OR OBSTRUCTIONS TO VISIBILITY.

KSZ001>006-013>018-027>032-041>047-292200-
NORTHWEST KANSAS

CITY           SKY/WX    TMP DP  RH WIND       PRES   REMARKS
GOODLAND       SUNNY     72  19  13 VRB3      30.05F
HAYS           SUNNY     73  39  29 SW16G25   30.05F
HILL CITY      SUNNY     74  38  27 S15       30.03F
RUSSELL        SUNNY     72  38  29 SW15G23   30.05F
$$

KSZ061>065-074>080-084>089-292200-
SOUTHWEST KANSAS

CITY           SKY/WX    TMP DP  RH WIND       PRES   REMARKS
DODGE CITY     SUNNY     72  37  28 S22G28    30.08F
ELKHART          N/A     72  37  28 S10         N/A
GARDEN CITY    SUNNY     72  38  29 SW17G23   30.06F
GREAT BEND     SUNNY     72  37  28 SW17G25   30.07F
LIBERAL        SUNNY     73  39  29 S17       30.10F
PRATT          SUNNY     72  32  23 S13G18    30.12S
$$

KSZ066>073-081>083-090>101-292200-
SOUTHEAST KANSAS

CITY           SKY/WX    TMP DP  RH WIND       PRES   REMARKS
CHANUTE        SUNNY     65  37  35 S5        30.16F
COFFEYVILLE    SUNNY     69  37  30 S5        30.16F
HUTCHINSON     SUNNY     72  33  24 SW13      30.10F
MEDICINE LODGE   N/A     73  32  22 S10G20    30.10F
NEWTON         SUNNY     70  34  26 SW13      30.14F
PARSONS        SUNNY     68  36  30 SW3       30.17F
WICHITA INTL   SUNNY     71  31  22 SW13      30.11F
WICHITA JABRA  SUNNY     70  31  23 S10G20    30.12F
WICHITA MCCONL SUNNY     71  30  21 S9        30.12F
WINFIELD       SUNNY     70  36  28 SW12G20   30.14F
$$

KSZ007>012-019>026-033>040-048>060-102>105-292200-
NORTHEAST KANSAS

CITY           SKY/WX    TMP DP  RH WIND       PRES   REMARKS
CONCORDIA      SUNNY     65  35  33 S9G20     30.09F
EMPORIA        SUNNY     65  35  33 SE10      30.14F
LAWRENCE       SUNNY     61  32  33 VRB3      30.16F
MANHATTAN      SUNNY     66  35  31 S14       30.11F
MARYSVILLE     SUNNY     61  34  36 S8        30.11F
OLATHE IND     SUNNY     61  33  35 CALM      30.17F
OLATHE EXE     SUNNY     60  31  33 SW3       30.16F
SALINA         SUNNY     70  36  28 S9        30.09F
TOPEKA BILLARD SUNNY     63  33  32 CALM      30.15F
TOPEKA FORBES  SUNNY     63  33  32 SE6       30.15F
$$



USA.gov is the U.S. government's official web portal to all federal, state and local government web resources and services.